[[{"header":{"parameterUnit":"m.s-1","parameterCategory":1,"la1":30.2992,"la2":30.254,"lo1":-89.0895,"lo2":-89.0443,"dy":0.0025,"dx":0.0025,"nx":19,"ny":19,"refTime":"2026-03-27T21:00:00:Z","depth":0,"parameterNumber":2,"parameterNumberName":"U-component_of_WINDS"},"data":[0,0,0,-5.6018,-5.6024,-5.6286,-5.6287,-5.6655,-5.6659,0,0,0,0,0,0,0,0,0,0,0,-5.596,-5.5963,-5.6018,-5.6025,-5.6286,-5.6287,-5.6655,-5.6659,0,0,0,0,0,0,0,0,0,0,0,-5.5958,-5.5962,-5.5966,-5.6026,-5.6286,-5.6287,-5.6654,-5.6445,0,0,0,0,0,0,0,0,0,0,-5.6185,-5.6149,-5.5961,-5.5966,-5.6027,-5.6286,-5.6287,-5.6434,-5.6458,-5.655,0,-5.6637,0,-5.6654,-5.6685,-5.6687,0,0,0,-5.6011,-5.613,-5.6183,-5.5966,-5.603,-5.6285,-5.6164,-5.6447,-5.6474,-5.6582,-5.6642,-5.6655,-5.666,-5.6688,-5.669,-5.7265,-5.7268,0,0,-5.5996,-5.6018,-5.6164,-5.6201,-5.6161,-5.6156,-5.6173,-5.6463,-5.653,-5.6643,-5.6663,-5.6666,-5.6691,-5.6694,-5.7262,-5.7266,0,0,0,-5.5964,-5.6008,-5.6053,-5.6187,-5.6231,-5.6164,-5.6183,-5.6517,-5.653,-5.6666,-5.667,-5.6693,-5.6698,-5.7258,-5.7263,-5.7446,0,0,0,-5.5955,-5.5989,-5.6048,-5.6063,-5.6227,-5.6377,-5.6232,-5.651,-5.6542,-5.6668,-5.6693,-5.6702,-5.7255,-5.7261,-5.7433,-5.753,0,0,0,-5.5936,-5.5987,-5.6031,-5.6064,-5.6177,-5.6372,-5.6401,-5.6516,-5.6545,-5.6687,-5.6703,-5.7252,-5.726,-5.7422,-5.7511,-5.7685,0,0,0,-5.5923,-5.6193,-5.6034,-5.6337,-5.6175,-5.6483,-5.6399,-5.6628,-5.6772,-5.6695,-5.7255,-5.7263,-5.7418,-5.7499,-5.7673,-5.7835,-5.7905,0,0,-5.6275,-5.6236,-5.6412,-5.6278,-5.6619,-5.6441,-5.681,-5.6923,-5.6919,-5.715,-5.7164,-5.7438,-5.7509,-5.7683,-5.829,-5.8346,0,0,0,-5.6531,-5.6658,-5.6744,-5.688,-5.6971,-5.7057,-5.711,-5.7152,-5.7346,-5.7041,-5.7548,-5.759,-5.7691,-5.7767,-5.7815,-5.7899,-5.7299,-5.7299,-5.7298,-5.7061,-5.7038,-5.7327,-5.7335,-5.7469,-5.7519,-5.7625,-5.769,-5.7631,-5.7751,-5.7819,-5.819,-5.8281,-5.8316,-5.8404,-5.7904,-5.7904,-5.7905,-5.7905,-5.7574,-5.7749,-5.7659,-5.7908,-5.7882,-5.8091,-5.815,-5.81,-5.8291,-5.8137,-5.8225,-5.8058,-5.8377,-5.8453,-5.7919,-5.7917,-5.7915,-5.7914,-5.7913,-5.7917,-5.7996,-5.804,-5.8233,-5.8384,-5.8383,-5.8569,-5.854,-5.8514,-5.8601,-5.8669,-5.8666,-5.8658,-5.8635,-5.8637,-5.8638,-5.8639,-5.864,-5.8641,-5.8255,-5.8299,-5.8458,-5.8575,-5.8657,-5.8761,-5.8814,-5.8894,-5.8976,-5.894,-5.894,-5.8868,-5.8413,-5.8298,-5.8661,-5.8657,-5.8655,-5.8653,-5.8651,-5.8782,-5.8657,-5.8904,-5.8986,-5.9119,-5.927,-5.9229,-5.9395,-5.9457,-5.955,-5.9458,-5.9127,-5.9085,-5.9048,-5.8953,-5.9463,-5.9463,-5.9463,-5.9463,-5.9071,-5.9046,-5.9289,-5.9421,-5.9548,-5.9535,-5.9814,-5.9857,-5.9882,-5.9919,-5.9841,-5.9713,-5.9676,-5.9656,-5.9605,-5.9516,-6.0158,-6.0159,-6.016,-5.9392,-5.9377,-5.962,-5.964,-5.9742,-5.9829,-6.009,-6.0246,-6.0249,-6.0187,-5.9947,-5.9918,-5.971,-5.9644,-5.9576,-5.9498,-5.9334,0,0]},{"header":{"parameterUnit":"m.s-1","parameterCategory":1,"la1":30.2992,"la2":30.254,"lo1":-89.0895,"lo2":-89.0443,"dy":0.0025,"dx":0.0025,"nx":19,"ny":19,"refTime":"2026-03-27T21:00:00:Z","depth":0,"parameterNumber":3,"parameterNumberName":"V-component_of_WINDS"},"data":[0,0,0,-0.7808,-0.7807,-0.7742,-0.7742,-0.7663,-0.7662,0,0,0,0,0,0,0,0,0,0,0,-0.7832,-0.7832,-0.7809,-0.7807,-0.7742,-0.7742,-0.7663,-0.7662,0,0,0,0,0,0,0,0,0,0,0,-0.7832,-0.7832,-0.7832,-0.7807,-0.7742,-0.7742,-0.7663,-0.771,0,0,0,0,0,0,0,0,0,0,-0.7772,-0.78,-0.7832,-0.7832,-0.7807,-0.7742,-0.7742,-0.7712,-0.7707,-0.7695,0,-0.7687,0,-0.7673,-0.7657,-0.7657,0,0,0,-0.7803,-0.7804,-0.7782,-0.7832,-0.7806,-0.7742,-0.777,-0.771,-0.7704,-0.7688,-0.7685,-0.7682,-0.7672,-0.7657,-0.7657,-0.76,-0.76,0,0,-0.7807,-0.7823,-0.7786,-0.7779,-0.7791,-0.7772,-0.7768,-0.7706,-0.7703,-0.7685,-0.768,-0.7671,-0.7656,-0.7656,-0.76,-0.76,0,0,0,-0.782,-0.7826,-0.7805,-0.7782,-0.777,-0.7771,-0.7766,-0.7706,-0.7698,-0.7679,-0.767,-0.7656,-0.7655,-0.76,-0.76,-0.7611,0,0,0,-0.7822,-0.7833,-0.7807,-0.7816,-0.7772,-0.7738,-0.7768,-0.7703,-0.7695,-0.767,-0.7656,-0.7654,-0.76,-0.76,-0.7611,-0.7613,0,0,0,-0.7835,-0.7834,-0.7827,-0.7817,-0.779,-0.7739,-0.7727,-0.7701,-0.7689,-0.7657,-0.7654,-0.76,-0.76,-0.7611,-0.7613,-0.7602,0,0,0,-0.7853,-0.7838,-0.7827,-0.7806,-0.7791,-0.7747,-0.7727,-0.7693,-0.7667,-0.7656,-0.76,-0.76,-0.7611,-0.7613,-0.7602,-0.7596,-0.7595,0,0,-0.7843,-0.7837,-0.7823,-0.7812,-0.7774,-0.7755,-0.7718,-0.7678,-0.766,-0.762,-0.7619,-0.7611,-0.7613,-0.7602,-0.7585,-0.7585,0,0,0,-0.7825,-0.7815,-0.7802,-0.7778,-0.7748,-0.7721,-0.7686,-0.767,-0.7636,-0.7644,-0.7604,-0.7605,-0.7598,-0.7594,-0.7593,-0.7585,-0.7599,-0.7599,-0.7599,-0.7833,-0.7811,-0.7786,-0.7755,-0.7732,-0.7694,-0.7673,-0.7645,-0.763,-0.7621,-0.7609,-0.7601,-0.7597,-0.7597,-0.7589,-0.7604,-0.7604,-0.7604,-0.7604,-0.7815,-0.7797,-0.7775,-0.7743,-0.7719,-0.7691,-0.7653,-0.7643,-0.7612,-0.7609,-0.7601,-0.76,-0.7597,-0.7589,-0.7605,-0.7604,-0.7604,-0.7604,-0.7604,-0.7818,-0.7805,-0.7787,-0.7749,-0.7721,-0.769,-0.7661,-0.7639,-0.7619,-0.7611,-0.7596,-0.7595,-0.7592,-0.7605,-0.7605,-0.7605,-0.7605,-0.7605,-0.7605,-0.7827,-0.7807,-0.7786,-0.7751,-0.7732,-0.7703,-0.7664,-0.7644,-0.7615,-0.7602,-0.7602,-0.7586,-0.7601,-0.7605,-0.7605,-0.7605,-0.7605,-0.7605,-0.7605,-0.7817,-0.7815,-0.7783,-0.7764,-0.772,-0.7693,-0.7665,-0.7625,-0.7605,-0.7591,-0.7576,-0.7591,-0.7584,-0.7584,-0.7587,-0.7582,-0.7582,-0.7582,-0.7582,-0.7819,-0.7813,-0.7774,-0.7744,-0.7712,-0.7683,-0.7645,-0.7613,-0.758,-0.7565,-0.7563,-0.7565,-0.7566,-0.7558,-0.7559,-0.7561,-0.755,-0.755,-0.7549,-0.781,-0.78,-0.7773,-0.7741,-0.7704,-0.7673,-0.7635,-0.76,-0.7562,-0.7548,-0.7553,-0.7554,-0.7558,-0.756,-0.7548,-0.7549,-0.7553,0,0]}]]